Terug naar catalogus

COSMOS 1691

ActiefNavigatiePO
NORAD 16139·PAYLOAD·🇷🇺 Russia

Gelanceerd Oct 9, 1985 vanaf Plesetsk Cosmodrome

Loading…

Volgende Passages (komende 24 uur)

TLE

VersSource: Space-Track

Epoch: Sep 14, 2026, 22:34 UTC

1 16139U 85094B   26257.94030292  .00000002  00000-0 -49675-4 0  9995
2 16139  82.6088 232.8677 0001256  66.7072 307.1263 12.62477205886562

Volg COSMOS 1691 in realtime met AllMySat

Download on the App Store